#timestamp,LO_Frequency,Hit,StdDev 
1633712415.2,286046995.4,Y
1633712435.0,286046998.6,P
1633712435.9,286046998.6,N
1633712455.8,286046998.8,N
1633712475.6,286046998.6,N
1633712495.4,286046998.3,Y
1633712515.3,286046999.7,P
1633712535.1,286046999.3,N
1633712555.8,286047001.0,N
1633712575.7,286047000.0,N
1633712595.5,286046999.9,N
1633712615.3,286046998.8,N
1633712635.2,286046999.4,N
1633712655.0,286046998.2,N
1633712655.9,286046998.2,N
1633712675.7,286046998.9,N
1633712695.6,286046999.3,N
1633712715.4,286046996.5,Y
1633712735.2,286046999.6,P
1633712755.1,286046999.4,P
1633712756.0,286046999.4,P
1633712775.8,286046996.9,Y
1633712795.6,286046997.1,P
1633712815.5,286046994.9,P
1633712835.3,286046996.8,N
1633712855.1,286046999.2,N
1633712875.9,286046996.8,N
1633712895.7,286046995.6,N
1633712915.5,286046995.4,N
1633712935.4,286046995.4,N
1633712955.2,286046995.9,N
1633712975.0,286046996.2,N
1633712975.9,286046996.2,N
1633712995.8,286046994.2,Y
1633713015.6,286046997.0,P
1633713035.4,286046997.1,P
1633713055.3,286046997.0,P
1633713075.1,286046996.6,Y
1633713095.8,286047001.0,P
1633713115.7,286047000.1,N
1633713135.5,286047001.0,N
1633713155.3,286047000.2,N
1633713175.2,286046998.1,N
1633713195.0,286046998.9,N
1633713195.9,286046998.9,N
1633713215.7,286046996.6,N
1633713235.6,286046999.5,N
1633713255.4,286046998.2,N
1633713275.2,286046999.4,N
1633713295.1,286046997.1,N
1633713296.0,286046997.1,N
1633713315.8,286046997.3,N
1633713335.6,286046997.8,N
1633713355.5,286046997.9,N
1633713375.3,286046997.9,N
1633713395.1,286046995.7,Y
1633713415.9,286046997.9,P
1633713435.7,286046995.0,P
1633713455.5,286046997.3,N
1633713475.4,286046997.1,N
1633713495.2,286046997.7,N
1633713515.0,286046994.9,Y
1633713515.9,286046994.9,P
1633713535.8,286046999.4,N
1633713555.6,286046998.5,N
1633713575.4,286047000.5,N
1633713595.3,286046998.1,N
1633713615.1,286046999.9,N
1633713635.8,286047000.6,N
1633713655.7,286047000.7,N
1633713675.5,286047000.7,N
1633713695.3,286047001.2,N
1633713715.2,286046999.1,N
1633713735.9,286046998.6,N
1633713755.7,286047000.9,N
1633713775.6,286046998.7,N
1633713795.4,286047000.7,N
1633713815.2,286047000.5,N
1633713835.1,286046998.7,N
1633713836.0,286046998.7,N
1633713855.8,286046998.1,N
1633713875.6,286047000.7,N
1633713895.5,286046998.4,N
1633713915.3,286046999.0,N
1633713935.1,286046998.6,N
1633713955.9,286046999.0,N
1633713975.7,286046999.4,N
1633713995.5,286046998.8,N
1633714015.4,286046999.1,N
1633714035.2,286046998.4,N
1633714055.0,286046996.7,N
1633714055.9,286046996.7,N
1633714075.8,286046997.0,N
1633714095.6,286046997.0,N
1633714115.4,286046999.5,N
1633714135.3,286046997.8,N
1633714155.1,286046995.3,Y
1633714156.0,286046995.3,P
1633714175.8,286046997.7,N
1633714195.7,286046997.2,N
1633714215.5,286046997.1,N
1633714235.3,286046997.1,N
1633714255.2,286046997.6,N
1633714275.9,286046996.7,Y
1633714325.8,286047001.7,E
1633714335.7,286047000.2,N
1633714355.5,286047001.0,P
1633714375.3,286047000.7,N
1633714395.2,286047000.5,N
1633714415.0,286046998.1,Y
1633714415.9,286046998.1,P
1633714435.7,286046999.6,N
1633714455.6,286046996.5,P
1633714475.4,286046997.9,N
1633714495.2,286046999.6,N
1633714515.1,286046996.5,N
1633714516.0,286046996.5,N
1633714535.8,286046999.5,N
1633714555.6,286046998.8,N
1633714575.5,286046998.2,N
1633714595.3,286046999.4,N
1633714615.1,286046998.3,N
1633714635.9,286046999.0,N
1633714655.7,286046999.3,N
1633714675.5,286046998.3,N
1633714695.4,286046999.2,N
1633714715.2,286046998.4,N
1633714735.0,286046998.7,N
1633714735.9,286046998.7,N
1633714755.8,286046999.2,N
1633714775.6,286046998.7,N
1633714795.4,286046999.4,N
1633714815.3,286047000.9,N
1633714835.1,286047000.5,N
1633714855.8,286046998.5,N
1633714875.7,286046999.3,N
1633714895.5,286046998.5,N
1633714915.3,286046998.8,N
1633714935.2,286046999.2,N
1633714955.9,286046998.3,N
1633714975.7,286046998.8,N
1633714995.6,286047000.8,N
1633715015.4,286047000.3,N
1633715035.2,286046998.2,N
1633715055.1,286046998.2,N
1633715056.0,286046998.2,N
1633715075.8,286046998.4,N
1633715095.6,286046998.5,N
1633715115.5,286046998.8,N
1633715135.3,286046998.7,N
1633715155.1,286046998.5,N
1633715175.9,286047001.1,N
1633715195.7,286047000.8,N
1633715215.5,286046998.4,N
1633715235.4,286047000.9,N
1633715255.2,286046998.8,N
1633715275.0,286046999.2,N
1633715275.9,286046999.2,N
1633715295.8,286047001.2,N
1633715315.6,286047001.0,N
1633715335.4,286047000.8,N
1633715355.3,286046999.9,N
1633715375.1,286047000.6,N
1633715395.8,286046998.6,N
1633715415.7,286047000.7,N
1633715435.5,286047001.2,N
1633715455.3,286046999.9,N
1633715475.2,286046999.8,N
1633715495.9,286047000.8,N
1633715515.7,286046999.8,N
1633715535.6,286047000.6,N
1633715555.4,286047000.4,N
1633715575.2,286047000.1,N
1633715595.1,286047000.0,N
1633715596.0,286047000.0,N
1633715615.8,286047002.3,N
1633715635.6,286047000.4,N
1633715655.5,286046999.8,N
1633715675.3,286047002.4,N
1633715695.1,286047002.6,N
1633715715.9,286047002.8,N
1633715735.7,286047004.4,Y
1633715755.5,286047004.0,P
1633715775.4,286047002.0,N
1633715795.2,286047001.3,N
1633715815.0,286047004.1,Y
1633715815.9,286047004.1,P
1633715835.8,286047000.6,N
1633715855.6,286047001.1,N
1633715875.4,286047001.0,N
1633715895.3,286047001.2,N
1633715915.1,286047000.9,N
1633715935.8,286047001.0,N
1633715955.7,286047001.1,N
1633715975.5,286046998.2,N
1633715995.3,286047000.7,N
